Location: Shenandoah County Park
(38.9356°N, 78.4524°W)
Time: 02:52:32
(UTC-05:00)

Transit 2A - Visible Passes

Search period start: 29 November 2023 00:00
Search period end: 09 December 2023 00:00
Orbit: 600 x 953 km, 66.7° (Epoch: 28 November)

Date Brightness Start Highest point End Pass type
(mag) Time Alt. Az. Time Alt. Az. Time Alt. Az.
29 Nov 8.3 18:29:10 10° WNW 18:31:48 14° NW 18:34:19 10° NNW visible
30 Nov 8.1 17:52:55 10° W 17:56:39 20° NW 18:00:11 10° N visible
01 Dec 7.6 17:17:06 10° WSW 17:21:34 29° NW 17:25:43 10° N visible
04 Dec 8.2 17:17:44 10° WNW 17:20:14 14° NW 17:22:40 10° NNW visible
